Location: Newark
(49.8969°N, 3.3422°E)
Time: 10:56:32
(UTC+00:00)

A-11 Canister half - Pass Details

Date: 24 January 2020
Orbit: 1517 x 1683 km, 47.2° (Epoch: 19 February)

Event Time Altitude Azimuth Distance (km) Brightness Sun altitude
Exits shadow 01:28:01 15° 85° (E) 3,292 10.9 -54.6°
Drops below altitude 10° 01:29:15 10° 84° (E) 3,685 11.2 -54.5°
Sets 01:32:18 0° 82° (E) 4,674 11.9 -54.2°
